Location: Prague
(50.0830°N, 14.4670°E)
Time: 11:49:42
(UTC+01:00)

ISS - Visible Passes

Search period start: 29 November 2022 00:00
Search period end: 09 December 2022 00:00
Orbit: 411 x 420 km, 51.6° (Epoch: 29 November)

Date Brightness Start Highest point End Pass type
(mag) Time Alt. Az. Time Alt. Az. Time Alt. Az.
29 Nov -3.8 17:51:48 10° WNW 17:55:07 70° N 17:55:46 51° ENE visible
29 Nov -0.2 19:28:35 10° WNW 19:28:40 10° W 19:28:40 10° W visible
30 Nov -3.7 17:03:02 10° W 17:06:22 65° N 17:09:05 14° E visible
30 Nov -2.2 18:39:50 10° WNW 18:41:58 36° W 18:41:58 36° W visible
01 Dec -3.8 17:51:04 10° WNW 17:54:25 84° SSW 17:55:19 45° ESE visible
01 Dec -0.2 19:28:07 10° W 19:28:13 10° W 19:28:13 10° W visible
02 Dec -3.8 17:02:17 10° WNW 17:05:38 79° NNE 17:08:45 11° E visible
02 Dec -2.0 18:39:09 10° W 18:41:39 31° SW 18:41:39 31° SW visible
03 Dec -3.0 17:50:15 10° WNW 17:53:29 48° SSW 17:55:11 23° SE visible
04 Dec -3.5 17:01:23 10° WNW 17:04:42 67° SSW 17:08:00 10° ESE visible
04 Dec -1.2 18:38:46 10° W 18:40:58 17° SW 18:41:49 15° SSW visible
05 Dec -1.6 17:49:30 10° W 17:52:17 25° SW 17:55:03 10° SSE visible
06 Dec -2.1 17:00:27 10° W 17:03:32 36° SSW 17:06:37 10° SE visible
07 Dec -0.5 17:49:30 10° WSW 17:50:49 12° SW 17:52:08 10° SSW visible
08 Dec -0.7 16:59:44 10° W 17:02:06 18° SW 17:04:27 10° S visible
